Regional Weather Roundup
Issued by NWS

Home | Current Version | Previous Version | Graphics & Text | Print | Product List | Glossary On
Versions: 1 2 3 4 5 6 7 8 9 10 11 12 13 14 15 16 17 18 19 20 21 22 23 24 25 26 27 28 29 30 31 32 33 34 35 36 37 38 39 40 41 42 43 44 45 46 47 48 49 50
000
ASUS43 KOAX 231910
RWRNE

WEATHER ROUNDUP FOR NEBRASKA
NATIONAL WEATHER SERVICE OMAHA NE
100 PM CST SUN NOV 23 2014

NOTES: SATELLITE DATA IS BEING USED TO AUGMENT CLOUD COVER ABOVE
       12000 FEET.
       "FAIR" INDICATES FEW OR NO CLOUDS BELOW 12,000 FEET WITH NO
       SIGNIFICANT WEATHER AND/OR OBSTRUCTIONS TO VISIBILITY.

  * THESE STATIONS DO NOT REPORT WEATHER SUCH AS RAIN...SNOW OR FOG.

NEZ001>004-019>022-054>056-232000-
NEBRASKA PANHANDLE

CITY           SKY/WX    TMP DP  RH WIND       PRES   REMARKS
SCOTTSBLUFF    SUNNY     44  14  29 NW30G44   29.77F
ALLIANCE       SUNNY     43  14  31 NW26G39   29.74F
CHADRON        SUNNY     41  21  44 NW32G40   29.76F
KIMBALL        SUNNY     40  12  32 N22G39    29.75F WCI  30
SIDNEY         MOSUNNY   44  14  29 N33G39    29.75F
$$

NEZ057>060-069>072-079>082-232000-
SOUTHWEST NEBRASKA

CITY           SKY/WX    TMP DP  RH WIND       PRES   REMARKS
NORTH PLATTE   CLOUDY    48  18  30 NW22G33   29.67F
IMPERIAL       CLOUDY    47  13  25 N30G39    29.71F
LEXINGTON      CLOUDY    47  23  39 N28G35    29.62F
MCCOOK         CLOUDY    48  20  32 N29G37    29.65F
OGALLALA       MOSUNNY   49  16  26 N25G33    29.70F
$$

NEZ005>010-023>029-035>040-094-232000-
NORTH CENTRAL NEBRASKA

CITY           SKY/WX    TMP DP  RH WIND       PRES   REMARKS
VALENTINE      MOSUNNY   47  20  34 NW28G39   29.65F
AINSWORTH      MOSUNNY   45  21  38 NW31G40   29.64F
BROKEN BOW     CLOUDY    46  24  42 N25G36    29.61F
O`NEILL        CLOUDY    45  30  57 NW28G35   29.60F
ORD            CLOUDY    45  25  45 N23G39    29.59F
THEDFORD       PTSUNNY   47  21  35 N26G39    29.66F
$$

NEZ041-046>049-061>064-073>077-083>087-232000-
SOUTH CENTRAL NEBRASKA

CITY           SKY/WX    TMP DP  RH WIND       PRES   REMARKS
AURORA         CLOUDY    42  38  87 N18G24    29.55F
HASTINGS       CLOUDY    43  34  70 N24G31    29.56F
HEBRON         LGT RAIN  42  35  74 N20G30    29.54R
HOLDREGE       CLOUDY    45  26  49 N18G35    29.60S
KEARNEY *      CLOUDY    45  28  53 NW26G33   29.60F
YORK           LGT RAIN  41  37  87 N17G24    29.54S
$$

NEZ011>018-030>034-042>045-232000-
NORTHEAST NEBRASKA

CITY           SKY/WX    TMP DP  RH WIND       PRES   REMARKS
NORFOLK        CLOUDY    43  35  73 NW20G28   29.53F
ALBION         CLOUDY    41  36  81 N22G35    29.56F
BLAIR          CLOUDY    46  38  73 NW25G37   29.47R
COLUMBUS *     CLOUDY    41  34  75 N18G28    29.53F
FREMONT        CLOUDY    46  37  70 NW20G32   29.51S
TEKAMAH        CLOUDY    47  37  68 NW31G40   29.49F
WAYNE          CLOUDY    42  37  82 NW16G24   29.53F
$$

NEZ050>053-065>068-078-088>093-232000-
SOUTHEAST NEBRASKA

CITY           SKY/WX    TMP DP  RH WIND       PRES   REMARKS
LINCOLN        CLOUDY    46  35  65 N31G37    29.53R
OMAHA EPPLEY   CLOUDY    47  38  71 NW24G37   29.48R
BEATRICE       CLOUDY    45  37  73 N29G40    29.49S
FALLS CITY     LGT RAIN  48  44  86 NW24G31   29.39S
NEBRASKA CITY  CLOUDY    47  42  84 N23G30    29.43F
PLATTSMOUTH    CLOUDY    46  39  76 NW29G37   29.45S
$$

NEZ044-045-051>053-067-232000-
OMAHA AREA

CITY           SKY/WX    TMP DP  RH WIND       PRES   REMARKS
OMAHA EPPLEY   CLOUDY    47  38  71 NW24G37   29.48R
BLAIR          CLOUDY    46  38  73 NW25G37   29.47R
FREMONT        CLOUDY    46  37  70 NW20G32   29.51S
MILLARD        CLOUDY    47  37  70 NW23G29   29.48S
OFFUTT AFB     CLOUDY    48  40  73 N18G28    29.46R
PLATTSMOUTH    CLOUDY    46  39  76 NW29G37   29.45S
WAHOO          CLOUDY    45  36  69 N23G36    29.50S
$$



USA.gov is the U.S. government's official web portal to all federal, state and local government web resources and services.